Lapse_Rate
4.0 3.2 2.5 2.4 1.8 2.0 1.0 0.9 1.0 0.7 0.8 1.7 1.5 1.0 0.8 0.6 0.8 0.7 0.4 -0.5 -2.5 0.7 0.4 0.6 0.5 0.4 0.8 0.9 0.8 -0.0 1.5 2.7 4.2 3.5 3.2 3.0 3.0 4.3 4.3 4.2 4.4 4.6 4.3
3.3 3.4 2.9 2.7 2.5 0.8 0.6 0.4 -0.0 0.0 -0.5 0.3 1.2 1.7 1.5 1.0 0.7 1.0 0.4 0.2 -0.5 0.9 0.6 0.5 0.7 1.9 0.4 0.0 1.0 1.1 2.2 3.0 4.5 5.1 3.7 3.6 4.0 4.2 4.4 4.7 4.9 4.9 5.1
2.6 2.9 3.1 2.7 2.2 1.4 0.7 -0.3 0.4 0.8 0.4 1.0 2.0 1.3 1.6 1.3 1.2 1.2 0.4 0.7 1.1 0.6 0.4 1.1 1.6 1.3 0.9 0.7 0.1 3.5 3.4 4.2 2.9 4.5 5.0 4.0 4.4 4.6 5.5 5.6 5.8 5.5 4.4
3.2 3.2 3.0 2.7 2.4 1.3 0.8 0.0 0.7 2.8 2.9 3.1 2.6 1.6 0.8 1.1 1.0 0.7 0.7 0.9 0.5 0.9 1.1 1.0 0.7 1.0 1.8 2.3 1.1 0.9 1.6 2.8 3.2 4.3 5.1 5.7 6.1 6.2 6.1 6.6 6.6 6.9 6.4
3.3 3.3 2.3 1.9 1.7 0.5 0.2 0.1 1.6 2.4 2.3 1.9 1.1 0.1 -0.1 0.8 1.6 1.4 1.6 1.4 0.7 0.8 0.9 0.6 0.7 0.8 1.4 1.2 1.5 3.3 2.4 2.3 3.0 5.0 6.4 6.5 7.1 7.7 8.3 8.4 7.8 7.8 6.7
2.7 2.1 1.9 1.9 1.9 0.8 1.8 1.8 1.4 1.4 1.4 1.9 1.7 1.9 1.5 2.6 3.6 3.4 1.6 1.2 1.1 0.2 0.2 0.1 0.1 0.7 1.2 3.5 4.0 4.9 4.5 3.4 4.8 6.5 7.0 7.5 8.3 7.6 7.9 7.9 7.8 7.8 7.9
4.3 4.0 3.6 3.1 2.4 2.3 2.4 2.1 1.7 1.8 2.1 2.8 3.0 3.8 3.7 3.7 4.0 3.2 2.1 0.5 0.3 0.4 0.7 0.9 0.7 2.8 2.8 2.4 3.1 4.3 5.3 6.8 7.8 8.4 8.0 7.7 8.3 8.7 7.8 7.1 7.7 7.8 7.4
4.9 4.6 4.0 3.9 3.0 2.9 2.9 2.9 2.8 2.6 2.3 2.2 2.5 2.9 3.1 3.9 3.8 3.2 1.9 0.6 0.3 0.6 0.1 1.2 2.5 2.5 2.5 3.9 4.9 4.8 5.5 5.7 6.5 7.1 8.1 8.5 8.3 8.1 8.3 7.8 7.9 8.7 8.7
4.0 4.0 4.0 3.6 3.2 3.0 2.7 2.6 2.8 2.2 2.0 1.9 1.5 1.7 1.6 2.1 3.4 2.3 1.1 0.5 0.2 0.9 1.2 2.9 3.4 4.5 4.3 5.4 6.4 5.6 6.6 7.1 7.1 7.6 7.5 7.6 8.1 8.0 8.0 8.2 7.0 7.1 6.7
3.9 3.7 3.2 3.0 2.7 2.2 2.4 2.3 2.7 2.5 2.1 2.3 2.0 1.6 2.6 1.8 2.8 2.3 1.4 3.8 3.5 3.5 3.7 4.3 4.3 4.7 5.4 7.1 8.9 7.5 7.1 7.2 7.1 6.1 6.3 6.2 6.2 5.8 6.1 6.7 6.2 5.2 5.6
3.2 2.9 2.7 3.0 2.4 2.0 1.8 1.9 1.8 1.8 1.9 1.4 1.2 1.2 1.4 2.5 4.0 5.5 4.5 3.0 4.0 4.2 4.5 4.9 5.4 6.4 7.8 9.0 9.0 7.3 7.6 9.0 7.0 6.2 6.1 5.9 5.9 5.7 5.6 5.1 4.9 4.6 4.3
3.0 2.6 2.6 2.5 2.9 2.4 1.9 1.5 1.2 1.7 2.1 2.1 2.2 2.0 2.3 3.7 5.8 5.9 6.5 6.0 5.4 5.3 5.7 6.3 6.7 7.6 8.5 8.1 7.5 7.2 7.6 7.3 6.1 5.8 5.5 5.4 5.0 4.4 4.1 3.9 3.4 3.3 3.8
3.4 2.6 2.3 2.1 2.0 2.0 2.0 1.8 1.9 2.0 2.1 2.3 2.7 2.7 3.1 3.2 3.7 5.7 6.1 6.2 6.5 6.4 6.3 6.9 7.5 7.3 6.7 5.5 5.9 6.6 6.3 5.4 5.4 5.1 5.0 4.5 4.2 3.5 2.6 2.8 2.7 2.7 1.9
1.3 1.1 1.3 1.3 0.9 1.1 1.7 1.9 2.0 1.9 2.4 2.9 3.0 2.5 2.4 3.0 3.7 4.5 5.4 5.4 5.9 6.3 6.0 5.9 5.9 5.5 4.9 5.3 5.1 5.1 5.0 5.1 5.0 4.9 4.3 4.1 3.8 3.3 3.5 3.9 3.1 3.4 2.2
0.6 0.9 0.9 0.7 1.1 1.4 1.8 2.3 2.7 1.5 2.6 2.8 2.5 3.1 3.6 4.4 5.5 6.7 6.7 7.0 6.8 7.2 4.7 4.9 4.8 4.7 4.6 4.5 4.5 4.4 4.4 4.2 4.0 3.8 3.4 3.4 3.5 3.6 3.4 3.5 3.1 2.8 2.9
0.9 1.0 1.1 1.2 1.4 1.7 2.2 2.1 4.2 4.4 4.8 4.7 4.4 4.2 4.8 5.8 6.8 7.1 7.1 6.9 6.8 7.0 5.3 4.7 4.5 4.2 3.9 3.7 3.5 3.5 3.6 3.4 3.2 2.6 2.5 2.4 2.4 2.4 2.5 2.9 3.9 3.8 3.5
0.7 0.7 1.5 1.2 1.4 1.6 1.8 2.2 2.8 3.0 4.7 5.0 5.1 5.9 6.4 6.6 6.9 7.1 6.9 6.7 6.7 5.5 4.8 4.3 3.9 3.6 3.5 3.4 3.1 2.7 2.3 2.5 1.4 1.7 1.6 1.7 1.9 2.1 2.8 3.3 4.0 4.3 4.3
0.4 1.7 1.0 0.9 1.0 1.3 1.7 1.7 1.7 2.2 2.4 2.6 3.2 4.9 5.5 6.2 6.8 6.9 6.9 5.3 4.8 4.6 4.1 4.1 3.7 3.5 3.4 3.0 2.5 2.3 2.2 1.9 1.9 1.8 1.8 1.7 1.8 3.3 3.5 3.7 4.8 4.8 4.6
0.4 0.3 0.3 0.4 0.5 1.0 0.8 0.7 1.0 1.2 1.5 1.8 2.5 3.9 4.6 5.9 6.6 6.2 5.6 4.2 3.8 3.9 3.8 3.6 3.3 3.0 3.0 2.8 2.4 1.9 1.4 1.3 1.9 2.6 2.3 1.7 2.6 3.4 3.3 3.5 4.5 4.9 5.5
0.5 1.4 0.7 0.5 0.7 0.5 0.8 1.1 1.2 1.2 1.7 2.1 2.8 3.2 3.8 4.5 4.6 4.4 4.1 3.7 3.6 3.5 3.5 3.2 3.1 2.9 2.8 2.3 1.8 1.5 1.4 1.7 2.0 1.9 1.9 2.1 2.2 2.7 3.0 3.2 3.6 3.9 4.2
0.3 1.2 1.3 0.3 0.6 0.6 0.8 1.0 1.1 1.3 1.9 2.4 2.9 3.5 6.3 5.0 4.3 4.0 3.7 3.6 3.6 3.5 3.2 2.7 2.5 2.0 1.8 1.4 0.9 1.0 1.2 1.4 1.7 2.1 3.1 2.6 2.3 2.4 3.2 3.3 3.6 4.0 4.7
-0.3 -0.3 -0.2 -0.0 0.1 0.4 0.7 0.8 1.3 1.7 2.3 2.6 3.2 3.6 5.4 4.4 4.1 3.9 3.7 3.6 3.4 3.3 2.9 2.0 1.5 1.2 1.0 0.7 0.7 0.6 0.7 1.0 1.7 3.0 3.3 3.2 2.8 3.0 3.4 3.6 4.2 4.7 5.7
-0.8 -0.7 -0.5 -0.4 -0.0 1.1 0.7 0.9 1.4 1.9 2.5 3.0 3.3 3.7 4.0 3.9 3.8 3.3 3.2 3.2 2.8 2.5 1.7 1.0 0.6 0.1 0.3 -0.3 -0.2 -0.2 0.1 0.9 2.2 3.1 2.8 2.9 3.1 3.7 3.9 4.1 4.8 6.0 7.2
-0.8 -0.7 -0.5 -0.5 -0.3 0.1 0.6 1.2 1.7 2.7 3.5 3.5 3.4 3.6 3.3 3.1 3.1 2.9 2.5 1.9 1.3 0.8 0.4 0.1 -0.0 -0.3 -0.5 -0.7 -0.4 -0.4 -0.4 0.3 1.0 1.4 2.1 2.3 2.8 3.5 5.2 6.1 6.4 6.8 7.0
-1.1 -1.1 -0.7 -0.6 -0.3 0.2 0.7 1.2 1.7 2.1 2.5 2.9 3.1 3.0 2.8 2.4 2.0 1.5 1.1 0.7 0.1 -0.2 -0.3 -0.6 -0.7 -1.0 -1.5 -1.8 -1.6 -1.2 -0.8 0.8 2.0 2.6 3.8 5.2 6.1 6.1 6.0 6.3 6.7 6.9 7.0
-1.7 -1.6 -1.3 -1.2 -1.0 -0.3 0.4 1.0 1.5 1.6 2.0 2.0 1.8 1.4 1.3 1.0 1.0 0.7 0.4 -0.1 -0.6 -0.7 -0.9 -0.9 -1.1 -1.6 -1.8 -1.7 -1.3 -0.8 1.4 3.0 3.8 4.4 5.2 5.8 6.2 6.6 6.7 6.7 6.7 6.9 6.9
Wind_Speed
9 7 9 8 7 6 7 6 6 6 7 8 10 11 12 12 12 11 10 10 15 9 7 8 7 6 5 3 2 3 1 1 3 1 2 2 3 5 8 9 10 13 15
9 8 7 7 6 4 3 3 3 5 6 8 9 10 11 12 12 12 12 11 13 11 9 8 8 5 5 5 2 2 2 2 1 7 3 3 5 5 7 8 11 13 17
9 8 6 5 4 2 2 3 3 4 7 9 10 10 10 10 11 11 12 12 11 11 10 9 7 5 5 3 5 2 1 3 2 5 5 3 3 4 6 7 8 13 15
9 7 6 4 4 5 4 6 4 4 6 8 10 10 10 10 11 12 13 13 12 9 8 8 7 6 6 4 4 5 6 5 4 5 5 5 5 5 4 7 8 8 10
9 7 6 8 6 9 9 8 7 7 7 8 12 12 12 11 8 12 12 13 12 11 8 7 5 6 6 6 4 5 5 4 3 5 6 5 6 6 8 8 9 9 10
9 9 9 9 10 11 10 8 9 9 9 9 10 11 12 9 22 21 16 11 10 10 8 6 4 3 2 6 6 6 5 5 5 4 6 8 9 8 7 8 9 9 8
8 9 9 9 9 9 8 8 9 10 11 11 11 11 13 13 23 21 19 9 7 7 6 4 4 3 3 0 2 4 5 9 9 7 8 8 9 9 9 9 11 9 10
8 8 9 8 9 8 8 8 9 9 10 10 11 11 11 10 20 19 19 9 7 6 6 5 4 2 3 3 3 3 5 5 5 5 7 9 9 9 9 8 11 12 11
8 8 9 9 10 10 9 9 8 10 10 9 10 10 10 9 15 16 12 8 8 7 5 5 4 3 3 5 4 3 4 6 8 12 12 12 14 17 17 8 8 8 8
8 8 8 8 8 9 8 9 9 9 9 8 9 7 11 9 12 10 6 5 6 5 4 1 4 5 6 6 3 2 5 7 7 7 5 10 12 12 13 8 6 7 7
7 7 9 8 8 8 8 7 8 9 8 9 8 7 6 3 4 10 8 5 3 3 1 1 2 5 6 6 6 2 6 9 3 4 7 6 6 6 5 7 8 6 7
8 8 8 8 6 6 8 7 8 8 9 8 8 6 5 5 10 9 7 7 5 2 1 2 3 6 4 6 6 10 10 7 4 5 5 6 6 7 6 7 12 12 13
8 8 8 8 7 6 7 7 6 6 6 5 5 4 3 3 3 6 5 4 2 1 1 3 2 4 6 5 8 8 6 3 4 5 5 6 6 7 9 8 11 14 16
9 8 7 7 7 6 5 5 5 4 4 4 3 3 2 2 1 1 1 2 4 2 2 2 4 4 5 5 4 3 3 3 4 5 6 7 7 6 7 6 7 8 9
7 6 6 6 6 6 5 4 4 2 2 3 2 2 2 1 0 1 0 1 1 3 3 1 2 3 4 4 3 3 4 4 4 4 5 6 7 6 7 6 6 7 7
7 5 4 4 4 4 4 4 8 8 8 7 5 2 0 2 2 3 3 5 4 5 1 1 2 3 4 4 4 5 4 5 4 5 6 6 7 7 7 8 7 8 9
6 5 4 5 3 3 2 3 2 3 7 7 6 5 4 3 4 3 5 4 4 2 1 1 3 3 4 4 4 4 5 6 6 6 6 6 7 7 9 8 8 8 9
5 8 4 3 3 3 2 2 1 1 0 1 4 4 5 6 4 3 5 2 2 2 1 3 3 3 4 5 5 5 6 6 6 6 7 7 7 7 8 8 9 9 9
5 4 4 3 3 3 2 2 1 1 1 1 2 3 4 6 4 4 4 1 2 3 3 3 3 4 5 5 5 6 6 7 7 7 7 7 7 7 9 8 9 17 17
4 9 6 3 3 2 2 1 1 1 1 1 2 2 3 3 2 3 2 2 3 4 4 5 5 5 6 6 6 6 7 7 7 7 8 7 8 8 8 9 9 10 11
4 3 7 3 2 2 1 1 1 1 1 2 2 3 8 0 3 4 4 4 4 5 5 5 6 6 6 6 6 6 7 8 8 8 8 8 8 8 9 9 10 11 12
4 4 3 3 2 2 1 1 0 1 2 2 3 3 8 2 3 4 5 5 5 5 5 6 6 6 6 6 7 7 8 8 8 8 8 8 8 9 9 10 10 12 12
4 4 3 2 2 2 1 0 1 1 2 3 3 4 4 4 4 4 5 6 6 6 9 8 6 7 10 11 11 9 7 9 9 9 9 9 9 10 10 11 12 12 11
4 4 4 3 2 2 1 1 2 3 3 3 4 4 4 5 5 6 6 6 6 7 10 10 9 9 11 12 14 14 15 17 16 14 13 11 11 14 11 11 12 15 13
4 4 3 3 2 2 1 1 2 3 3 3 4 4 5 5 6 6 6 6 6 7 8 10 11 12 15 16 18 20 22 26 23 23 18 14 14 17 15 13 14 13 16
4 4 3 2 2 2 2 2 2 3 3 4 4 5 6 6 6 7 7 7 6 7 8 11 12 15 18 18 20 21 24 26 25 27 22 11 12 12 12 14 18 13 16
Wind_Direction
338 336 320 307 317 300 277 266 233 199 179 182 185 175 177 171 171 171 173 163 143 144 136 128 110 110 118 78 25 67 56 119 237 231 255 210 255 272 292 300 294 297 299
326 327 340 327 320 324 308 266 202 182 161 159 159 164 171 172 164 165 159 158 134 128 115 105 107 127 114 114 99 92 185 199 181 260 260 262 254 287 285 288 290 293 296
328 329 346 349 329 12 346 144 167 167 155 153 152 152 155 151 147 141 133 126 121 120 120 118 131 125 118 115 107 168 277 246 203 248 272 254 270 272 289 287 285 294 294
347 335 339 14 3 50 43 57 96 138 152 152 139 126 124 124 124 124 120 113 106 104 106 110 119 126 132 152 155 179 214 218 220 251 262 271 270 277 268 292 302 298 299
18 23 13 40 46 78 76 63 69 71 85 99 107 103 105 107 111 108 102 107 110 106 95 100 100 121 161 181 182 211 208 220 232 257 265 270 279 288 297 308 298 300 298
15 18 32 42 48 53 66 81 83 85 88 92 92 100 101 103 110 108 109 105 107 110 120 109 130 115 209 224 224 213 215 225 225 249 268 277 289 296 297 300 298 299 311
23 31 40 53 57 64 75 79 83 88 88 87 86 91 94 103 113 114 112 102 105 103 107 118 118 185 184 287 221 233 273 285 284 272 276 285 293 294 295 288 284 286 286
35 44 50 57 67 68 71 76 82 86 89 90 86 88 89 100 106 109 108 106 100 106 124 123 144 201 218 220 264 280 274 275 275 277 276 283 284 283 274 269 281 290 285
39 46 57 65 71 69 69 72 77 83 80 79 84 88 86 88 102 99 105 118 119 115 119 171 183 231 320 315 287 289 278 279 281 290 299 300 298 297 296 296 283 291 297
43 47 53 55 62 68 66 70 72 76 77 79 79 75 98 99 104 112 109 111 119 127 120 119 343 338 322 301 298 244 265 287 297 302 297 298 296 290 288 277 275 276 290
60 61 57 58 65 67 68 69 84 81 79 74 75 71 73 93 180 144 113 80 98 111 87 340 310 295 282 303 317 243 285 296 312 307 300 293 287 283 287 287 276 260 271
70 69 68 61 64 67 79 72 77 89 93 97 106 94 67 37 71 83 94 122 126 117 205 239 262 298 323 332 325 307 311 336 318 300 293 294 302 302 297 291 284 275 259
81 78 77 73 71 74 88 88 86 88 96 95 94 93 84 53 47 66 71 73 26 127 260 292 25 13 348 345 322 320 324 299 285 286 290 293 294 295 299 298 292 281 269
94 91 90 91 84 74 80 83 93 94 100 108 110 97 70 56 71 105 83 1 349 350 56 55 18 0 345 327 313 301 279 279 288 295 297 300 300 292 293 294 296 310 309
98 94 89 86 89 88 78 90 89 83 124 124 119 132 131 96 199 200 350 338 12 337 122 51 343 335 331 331 323 312 308 308 300 300 294 293 291 293 294 299 294 306 294
114 111 111 104 95 93 98 79 78 89 91 97 122 143 95 254 13 360 0 347 4 2 50 338 319 317 320 321 321 317 306 306 307 306 297 292 292 297 300 301 293 295 295
125 133 121 118 121 124 109 104 114 36 61 66 59 40 36 13 351 5 353 2 346 40 317 285 299 309 315 305 304 306 301 304 304 295 293 291 290 289 296 297 298 292 288
129 130 124 126 120 112 111 118 126 127 71 0 3 14 8 351 352 7 354 11 342 352 298 301 307 314 308 304 310 309 307 309 307 298 291 288 283 283 293 290 289 287 289
131 134 133 126 125 127 127 123 114 91 59 9 340 349 350 334 341 359 15 5 314 307 297 294 297 302 298 294 297 298 293 293 292 292 294 287 285 285 283 283 285 294 297
135 143 138 132 135 140 140 123 81 50 359 304 297 298 306 329 322 318 312 295 293 294 299 301 302 295 291 293 295 293 295 295 297 294 288 284 283 280 278 283 288 291 291
136 137 147 136 140 126 118 126 172 217 285 307 306 298 306 331 302 299 299 300 300 300 297 295 293 290 292 289 287 288 289 290 289 284 279 277 276 278 278 279 284 283 283
141 142 145 144 141 147 160 165 263 309 312 306 305 300 316 327 298 296 297 294 293 289 288 288 288 285 282 281 285 284 284 282 282 277 276 279 278 278 279 282 284 285 285
145 146 142 141 153 153 112 240 292 301 299 295 296 301 308 304 300 292 292 294 295 294 293 289 286 284 283 275 270 263 269 272 275 279 279 281 281 282 285 285 282 283 286
150 148 150 156 160 172 220 274 283 295 293 290 293 295 298 298 297 297 295 294 294 289 291 285 279 272 282 281 279 271 262 267 271 272 272 273 276 284 277 283 286 287 289
151 148 152 164 175 204 261 277 279 284 290 293 300 301 303 300 297 292 289 289 286 286 283 279 276 274 273 273 275 275 273 281 280 274 272 271 277 282 281 281 285 287 288
150 150 152 157 185 213 232 255 265 274 286 296 296 296 295 294 291 289 288 284 281 285 285 285 277 269 274 278 276 280 288 291 292 293 293 285 282 283 283 283 285 286 291